Weather History for Whiting Fld NAS, FL

Change the Weather History Date:

Monday, August 4, 2014

  Actual Average Record
Temperature  
Mean Temperature 80 °F -  
Max Temperature 91 °F 87 °F 100 °F (2011)
Min Temperature 70 °F 70 °F 46 °F (2000)
Cooling Degree Days 15    
Growing Degree Days 30 (Base 50)    
Moisture  
Dew Point 71 °F    
Average Humidity 76    
Maximum Humidity 91    
Minimum Humidity 54    
Precipitation  
Precipitation 0.00 in - - ()
Sea Level Pressure  
Sea Level Pressure 29.95 in    
Wind  
Wind Speed 3 mph (North)    
Max Wind Speed 14 mph    
Max Gust Speed -    
Visibility 10 miles    
Events Thunderstorm    
Averages and records for this station are not official NWS values.
T = Trace of Precipitation, MM = Missing Value Source: NWS Daily Summary

Daily Weather History Graph

Daily Weather History Graph

Search for Another Location

Airport:

Trip Planner

Search our weather history database for the weather conditions in past years. The results will help you decide how hot, cold, wet, or windy it might be!

Date:

Astronomy

Aug. 04, 2014 Rise Set
Actual Time 6:07 AM CDT 7:40 PM CDT
Civil Twilight 5:41 AM CDT 8:06 PM CDT
Nautical Twilight 5:10 AM CDT 8:37 PM CDT
Astronomical Twilight 4:37 AM CDT 9:09 PM CDT
Moon 1:53 PM CDT (8/4) 12:10 AM CDT (8/4)
Length of Visible Light 14h 24m
Length of Day
13h 32m
First Quarter, 57% of the Moon is Illuminated
Aug 4
First Quarter
Aug 10
Full
Aug 17
Last Quarter
Aug 25
New
Sep 2
First Quarter

Hourly Weather History & Observations

Time (CDT) Temp. Heat Index Dew Point Humidity Pressure Visibility Wind Dir Wind Speed Gust Speed Precip Events Conditions
12:56 AM 73.9 °F - 70.0 °F 87% 29.93 in 7.0 mi Calm Calm - N/A   Clear
1:56 AM 73.0 °F - 70.0 °F 90% 29.92 in 4.0 mi North 3.5 mph - N/A   Clear
2:56 AM 73.0 °F - 69.1 °F 87% 29.94 in 7.0 mi North 3.5 mph - N/A   Clear
3:26 AM 73.0 °F - 69.1 °F 87% 29.98 in 9.0 mi NNE 4.6 mph - N/A   Mostly Cloudy
3:56 AM 73.0 °F - 68.0 °F 84% 29.94 in 10.0 mi NE 4.6 mph - N/A   Overcast
4:14 AM 72.0 °F - 68.0 °F 87% 29.99 in 10.0 mi Calm Calm - N/A   Scattered Clouds
4:56 AM 71.1 °F - 66.9 °F 87% 29.94 in 10.0 mi NNE 3.5 mph - N/A   Clear
5:56 AM 70.0 °F - 66.9 °F 90% 29.95 in 10.0 mi North 3.5 mph - N/A   Scattered Clouds
6:56 AM 73.0 °F - 68.0 °F 84% 29.96 in 10.0 mi Calm Calm - N/A   Scattered Clouds
7:56 AM 75.9 °F - 69.1 °F 79% 29.97 in 10.0 mi North 4.6 mph - N/A   Scattered Clouds
8:56 AM 80.1 °F 83.6 °F 71.1 °F 74% 29.98 in 10.0 mi Variable 3.5 mph - N/A   Scattered Clouds
9:56 AM 82.0 °F 86.7 °F 72.0 °F 71% 29.98 in 10.0 mi NW 5.8 mph - N/A   Mostly Cloudy
10:56 AM 84.9 °F 91.4 °F 73.0 °F 67% 29.99 in 10.0 mi Calm Calm - N/A   Mostly Cloudy
11:56 AM 86.0 °F 93.0 °F 73.0 °F 65% 29.97 in 10.0 mi Variable 4.6 mph - N/A   Mostly Cloudy
12:56 PM 87.1 °F 93.6 °F 72.0 °F 61% 29.95 in 10.0 mi Variable 3.5 mph - N/A   Mostly Cloudy
1:56 PM 89.1 °F 96.0 °F 72.0 °F 57% 29.92 in 10.0 mi NW 6.9 mph - N/A   Mostly Cloudy
2:56 PM 90.0 °F 96.4 °F 71.1 °F 54% 29.91 in 10.0 mi NW 8.1 mph - N/A   Mostly Cloudy
3:03 PM 90.0 °F 96.4 °F 71.1 °F 54% 29.95 in 10.0 mi NNW 5.8 mph - N/A Thunderstorm Thunderstorm
3:56 PM 86.0 °F 91.5 °F 71.1 °F 61% 29.91 in 10.0 mi SSE 13.8 mph - N/A Thunderstorm Thunderstorm
4:35 PM 82.9 °F 87.0 °F 70.0 °F 65% 29.95 in 10.0 mi South 10.4 mph - N/A   Mostly Cloudy
4:56 PM 84.9 °F 90.1 °F 71.1 °F 63% 29.90 in 10.0 mi SSE 6.9 mph - N/A   Mostly Cloudy
5:56 PM 84.9 °F 89.4 °F 70.0 °F 61% 29.92 in 10.0 mi South 5.8 mph - N/A   Mostly Cloudy
6:56 PM 82.9 °F 88.8 °F 73.0 °F 72% 29.94 in 10.0 mi NNE 3.5 mph - N/A   Mostly Cloudy
7:56 PM 79.0 °F - 73.0 °F 82% 29.94 in 10.0 mi East 3.5 mph - N/A   Mostly Cloudy
8:56 PM 77.0 °F - 72.0 °F 84% 29.96 in 10.0 mi Calm Calm - N/A   Mostly Cloudy
9:56 PM 75.9 °F - 72.0 °F 87% 29.98 in 10.0 mi Calm Calm - N/A   Scattered Clouds
10:44 PM 77.0 °F - 72.0 °F 84% 30.01 in 10.0 mi SW 3.5 mph - N/A   Scattered Clouds
10:56 PM 77.0 °F - 72.0 °F 84% 29.96 in 10.0 mi Calm Calm - N/A   Clear
11:56 PM 73.9 °F - 71.1 °F 91% 29.96 in 8.0 mi North 3.5 mph - N/A   Clear